TimeEDT,TemperatureF,Dew PointF,Humidity,Sea Level PressureIn,VisibilityMPH,Wind Direction,Wind SpeedMPH,Gust SpeedMPH,PrecipitationIn,Events,Conditions,WindDirDegrees,DateUTC
12:53 AM,48.0,43.0,83,30.22,10.0,Calm,Calm,-,N/A,,Clear,0,2013-09-18 04:53:00
1:53 AM,48.0,43.0,83,30.21,10.0,Calm,Calm,-,N/A,,Clear,0,2013-09-18 05:53:00
2:53 AM,48.9,43.0,80,30.20,10.0,ENE,3.5,-,N/A,,Clear,60,2013-09-18 06:53:00
3:53 AM,48.9,43.0,80,30.19,10.0,Calm,Calm,-,N/A,,Clear,0,2013-09-18 07:53:00
4:53 AM,50.0,44.1,80,30.18,10.0,Calm,Calm,-,N/A,,Clear,0,2013-09-18 08:53:00
5:53 AM,48.9,44.1,83,30.18,10.0,Calm,Calm,-,N/A,,Clear,0,2013-09-18 09:53:00
6:53 AM,48.0,44.1,86,30.19,10.0,Calm,Calm,-,N/A,,Clear,0,2013-09-18 10:53:00
7:53 AM,51.1,46.0,83,30.20,10.0,Calm,Calm,-,N/A,,Clear,0,2013-09-18 11:53:00
8:53 AM,55.0,48.9,80,30.19,10.0,Calm,Calm,-,N/A,,Clear,0,2013-09-18 12:53:00
9:53 AM,61.0,53.1,75,30.19,10.0,Calm,Calm,-,N/A,,Clear,0,2013-09-18 13:53:00
10:53 AM,64.9,53.1,65,30.18,10.0,South,4.6,-,N/A,,Clear,180,2013-09-18 14:53:00
11:53 AM,70.0,54.0,57,30.17,10.0,SSW,6.9,-,N/A,,Clear,200,2013-09-18 15:53:00
12:53 PM,71.1,55.0,57,30.15,10.0,SSE,5.8,-,N/A,,Clear,160,2013-09-18 16:53:00
1:53 PM,75.0,55.0,50,30.13,10.0,SE,6.9,-,N/A,,Clear,130,2013-09-18 17:53:00
2:53 PM,77.0,51.1,40,30.12,10.0,SSE,9.2,-,N/A,,Clear,160,2013-09-18 18:53:00
3:53 PM,75.9,45.0,33,30.09,10.0,SSE,10.4,-,N/A,,Clear,150,2013-09-18 19:53:00
4:53 PM,75.0,39.9,28,30.07,10.0,SSE,8.1,-,N/A,,Clear,160,2013-09-18 20:53:00
5:53 PM,75.0,53.1,46,30.06,10.0,SSE,8.1,-,N/A,,Clear,160,2013-09-18 21:53:00
6:53 PM,72.0,55.0,55,30.06,10.0,SE,6.9,-,N/A,,Clear,140,2013-09-18 22:53:00
7:53 PM,64.9,55.9,73,30.06,10.0,SE,4.6,-,N/A,,Clear,130,2013-09-18 23:53:00
8:53 PM,63.0,55.9,78,30.07,10.0,ESE,5.8,-,N/A,,Clear,120,2013-09-19 00:53:00
9:53 PM,64.0,57.0,78,30.06,9.0,ESE,4.6,-,N/A,,Clear,120,2013-09-19 01:53:00
10:53 PM,62.1,57.0,84,30.06,6.0,ESE,3.5,-,N/A,,Haze,120,2013-09-19 02:53:00
11:53 PM,61.0,55.9,83,30.05,6.0,Calm,Calm,-,N/A,,Haze,0,2013-09-19 03:53:00